{"data":{"norad_id":67477,"intl_designator":"2026-010B","name":"TIANQI-38","alt_names":[],"object_type":"PAYLOAD","status":"ACTIVE","operator":null,"country":"PRC","launch_date":"2026-01-15","launch_site_code":"YSLA","launch_vehicle":null,"mission":null,"orbit_class":"UNKNOWN","rcs_meters":null,"size_class":null,"mass_kg":null,"dimensions":null,"purposes":[],"wikipedia_slug":null,"has_3d_model":false,"image_url":null,"decayed_at":null,"tle_current":{"epoch":"2026-09-20T06:26:48.801696Z","epoch_age_seconds":116601,"freshness":"FRESH","line1":"1 67477U 26010B   26263.26862039 -.00000010  00000+0  81568-4 0  9998","line2":"2 67477  44.9798  18.4217 0009106  65.9866 294.1919 13.99185947 34719","mean_motion":13.99185947,"eccentricity":0.0009106,"inclination_deg":44.9798,"raan_deg":18.4217,"arg_perigee_deg":65.9866,"mean_anomaly_deg":294.1919,"bstar":8.1568e-5,"rev_number":3471,"period_min":102.91698562922,"perigee_km":889.99104069355,"apogee_km":903.23981981954,"semimajor_km":7274.7524302565,"source":"CELESTRAK","updated_at":"2026-09-21T09:00:16.668785Z"}}}